Hailey, ID

10:17 PM MDT on October 19, 2019 (GMT -0600)
Friedman Memorial

Weather History for KSUN - September, 2019

Change the Weather History Date:

Tuesday, September 17, 2019

  Actual Average Record
Temperature  
Mean Temperature 49 °F -  
Max Temperature 59 °F 69 °F 86 °F (1999)
Min Temperature 39 °F 41 °F 28 °F (1996)
Degree Days  
Heating Degree Days 16    
Moisture  
Dew Point 39 °F    
Average Humidity 77    
Maximum Humidity 100    
Minimum Humidity 41    
Precipitation  
Precipitation 0.16 in - - ()
Sea Level Pressure  
Sea Level Pressure 29.99 in    
Wind  
Wind Speed 9 mph (South)    
Max Wind Speed 18 mph    
Max Gust Speed 25 mph    
Visibility 10 miles    
Events Rain    
Averages and records for this station are not official NWS values.
T = Trace of Precipitation, MM = Missing Value Source: NWS Daily Summary

Daily Weather History Graph

Daily Weather History Graph

Search for Another Location

Airport or City:

Astronomy

Sep. 17, 2019 Rise Set
Actual Time 7:18 AM MDT 7:43 PM MDT
Civil Twilight 6:50 AM MDT 8:12 PM MDT
Nautical Twilight 6:16 AM MDT 8:46 PM MDT
Astronomical Twilight 5:41 AM MDT 9:21 PM MDT
Moon 9:43 PM MDT (9/17) 10:32 AM MDT (9/17)
Length of Visible Light 13h 22m
Length of Day
12h 25m
Waning Gibbous, 89% of the Moon is Illuminated
Sep 17
Waning Gibbous
Sep 21
Last Quarter
Sep 28
New
Oct 5
First Quarter
Oct 13
Full

Hourly Weather History & Observations

Time (MDT) Temp. Windchill Dew Point Humidity Pressure Visibility Wind Dir Wind Speed Gust Speed Precip Events Conditions
12:15 AM 51.8 °F - 37.4 °F 58% 29.88 in 10.0 mi SSE 11.5 mph 25.3 mph N/A   Overcast
12:35 AM 53.6 °F - 35.6 °F 51% 29.91 in 10.0 mi WSW 15.0 mph 23.0 mph N/A   Overcast
12:55 AM 50.0 °F - 41.0 °F 71% 29.93 in 10.0 mi WSW 18.4 mph 24.2 mph N/A Rain Rain
1:15 AM 48.2 °F - 42.8 °F 82% 29.94 in 2.5 mi NW 3.5 mph - 0.11 in Rain Light Rain
1:35 AM 48.2 °F - 42.8 °F 82% 29.93 in 10.0 mi Calm Calm - 0.16 in Rain Rain
1:55 AM 46.4 °F 42.4 °F 44.6 °F 93% 29.93 in 10.0 mi WNW 8.1 mph - 0.16 in Rain Light Rain
2:15 AM 46.4 °F 41.9 °F 42.8 °F 87% 29.92 in 10.0 mi West 9.2 mph - N/A   Overcast
2:35 AM 46.4 °F - 42.8 °F 87% 29.93 in 10.0 mi Calm Calm - N/A   Overcast
2:55 AM 46.4 °F 45.2 °F 44.6 °F 93% 29.92 in 10.0 mi ESE 3.5 mph - N/A   Overcast
3:15 AM 44.6 °F 43.1 °F 44.6 °F 100% 29.93 in 10.0 mi South 3.5 mph - N/A   Overcast
3:35 AM 44.6 °F 40.2 °F 42.8 °F 93% 29.93 in 10.0 mi SE 8.1 mph - N/A   Mostly Cloudy
3:55 AM 44.6 °F 40.2 °F 42.8 °F 93% 29.95 in 10.0 mi SSE 8.1 mph - N/A   Scattered Clouds
4:15 AM 42.8 °F 37.5 °F 42.8 °F 100% 29.94 in 10.0 mi SE 9.2 mph - N/A   Scattered Clouds
4:35 AM 42.8 °F 38.6 °F 42.8 °F 100% 29.95 in 10.0 mi SE 6.9 mph - N/A   Clear
4:55 AM 42.8 °F 36.6 °F 41.0 °F 93% 29.95 in 10.0 mi ESE 11.5 mph - N/A   Clear
5:15 AM 42.8 °F 38.0 °F 41.0 °F 93% 29.96 in 10.0 mi SE 8.1 mph - N/A   Clear
5:35 AM 42.8 °F 36.6 °F 39.2 °F 87% 29.96 in 10.0 mi ESE 11.5 mph - N/A   Mostly Cloudy
5:55 AM 42.8 °F 36.6 °F 39.2 °F 87% 29.96 in 10.0 mi SE 11.5 mph - N/A   Scattered Clouds
6:15 AM 41.0 °F 34.7 °F 39.2 °F 93% 29.97 in 10.0 mi SE 10.4 mph - N/A   Clear
6:35 AM 41.0 °F 36.4 °F 39.2 °F 93% 29.98 in 10.0 mi SE 6.9 mph - N/A   Clear
6:47 AM 41.0 °F 38.0 °F 39.2 °F 93% 29.99 in 10.0 mi South 4.6 mph - N/A   Scattered Clouds
6:55 AM 41.0 °F - 37.4 °F 87% 29.99 in 10.0 mi Calm Calm - N/A   Scattered Clouds
7:15 AM 41.0 °F 37.1 °F 37.4 °F 87% 29.99 in 10.0 mi South 5.8 mph - N/A   Scattered Clouds
7:35 AM 39.2 °F 35.9 °F 37.4 °F 93% 30.00 in 10.0 mi South 4.6 mph - N/A   Clear
7:47 AM 39.2 °F 33.0 °F 39.2 °F 100% 30.01 in 10.0 mi SE 9.2 mph - N/A   Scattered Clouds
9:47 AM 44.6 °F 39.7 °F 39.2 °F 81% 30.04 in 7.0 mi ESE 9.2 mph - N/A   Mostly Cloudy
10:47 AM 48.2 °F - 42.8 °F 82% 30.06 in 7.0 mi ESE 9.2 mph - N/A   Mostly Cloudy
11:47 AM 51.8 °F - 39.2 °F 62% 30.06 in 10.0 mi South 5.8 mph - N/A   Mostly Cloudy
12:50 PM 53.6 °F - 39.2 °F 58% 30.06 in 10.0 mi SSW 11.5 mph - N/A   Mostly Cloudy
1:47 PM 57.2 °F - 37.4 °F 48% 30.06 in 10.0 mi South 11.5 mph 19.6 mph N/A   Mostly Cloudy
2:53 PM 57.2 °F - 37.4 °F 48% 30.08 in 10.0 mi SSW 15.0 mph - N/A   Scattered Clouds
3:48 PM 57.2 °F - 37.4 °F 48% 30.08 in 10.0 mi SSW 15.0 mph - N/A   Scattered Clouds
4:47 PM 59.0 °F - 35.6 °F 42% 30.08 in 10.0 mi South 9.2 mph - N/A   Partly Cloudy
5:55 PM 57.2 °F - 33.8 °F 41% 30.08 in 10.0 mi SSW 9.2 mph - N/A   Clear
6:50 PM 55.4 °F - 33.8 °F 44% 30.09 in 10.0 mi WNW 6.9 mph - N/A   Clear
7:47 PM 50.0 °F - 37.4 °F 62% 30.07 in 10.0 mi Calm Calm - N/A   Clear
8:55 PM 46.4 °F 42.4 °F 35.6 °F 66% 30.07 in 10.0 mi NNW 8.1 mph - N/A   Clear
9:55 PM 44.6 °F 41.4 °F 35.6 °F 71% 30.07 in 10.0 mi West 5.8 mph - N/A   Clear
10:47 PM 44.6 °F 40.7 °F 35.6 °F 71% 30.06 in 10.0 mi WNW 6.9 mph - N/A   Clear